[[{"header":{"parameterUnit":"m.s-1","parameterCategory":1,"la1":30.2991,"la2":30.254,"lo1":-89.0895,"lo2":-89.0444,"dy":0.0017,"dx":0.0017,"nx":28,"ny":28,"refTime":"2023-11-01T09:00:00:Z","depth":0,"parameterNumber":2,"parameterNumberName":"U-component_of_WINDS"},"data":[0,0,0,0,0,0,0,0,0,0,0,0,0,0,0,0,0,0,0,0,0,0,0,0,0,0,0,0,0,0,0,0,0,0,0,0,0,0,0,0,0,0,0,0,0,0,0,0,0,0,0,0,0,0,0,0,0,0,-0.2729,-0.2729,0,-0.2797,-0.2798,-0.2799,-0.2768,-0.2766,-0.2764,-0.2763,-0.2836,-0.284,-0.2843,0,0,0,0,0,0,0,0,0,0,0,0,0,-0.2573,-0.2576,-0.2728,-0.2729,-0.273,-0.2797,-0.2798,-0.2799,-0.2768,-0.2766,-0.2764,-0.2762,-0.2835,-0.2839,-0.2843,0,0,0,0,0,0,0,0,0,0,0,0,0,-0.2641,-0.2577,-0.2728,-0.2723,-0.2723,-0.2797,-0.2798,-0.2799,-0.2769,-0.2766,-0.2763,-0.2761,-0.2834,-0.2839,-0.2844,-0.2928,0,0,-0.286,-0.2863,0,0,0,0,0,0,0,0,-0.2637,-0.2647,-0.2723,-0.2723,-0.2724,-0.2771,-0.277,-0.2842,-0.2769,-0.2751,-0.2763,-0.276,-0.2817,-0.2823,-0.2842,-0.2932,-0.2935,-0.2861,-0.2864,-0.2866,-0.2868,0,0,0,0,0,0,0,-0.2633,-0.2644,-0.2756,-0.2724,-0.2725,-0.2718,-0.2724,-0.2784,-0.2798,-0.2753,-0.2751,-0.2759,-0.2817,-0.2837,-0.2843,-0.2936,-0.2861,-0.2865,-0.2869,-0.2871,-0.3098,-0.3101,0,0,0,0,0,0,-0.2628,-0.264,-0.2753,-0.2758,-0.2673,-0.2722,-0.273,-0.2759,-0.2797,-0.28,-0.2761,-0.2757,-0.2829,-0.2837,-0.2846,-0.2948,-0.2866,-0.2871,-0.2874,-0.3095,-0.3098,-0.3102,0,0,0,0,0,0,-0.2625,-0.2638,-0.2751,-0.2698,-0.2712,-0.2728,-0.276,-0.2761,-0.2782,-0.2803,-0.2806,-0.2779,-0.2827,-0.2838,-0.2908,-0.295,-0.2874,-0.2879,-0.3092,-0.3096,-0.31,-0.3152,0,0,0,0,0,0,-0.262,-0.2637,-0.2669,-0.2699,-0.2715,-0.2811,-0.2763,-0.2764,-0.279,-0.2786,-0.2821,-0.2824,-0.2826,-0.29,-0.2913,-0.2956,-0.2883,-0.3088,-0.3094,-0.3099,-0.3147,-0.3157,-0.3167,0,0,0,0,0,-0.2615,-0.2682,-0.2671,-0.2685,-0.2755,-0.2814,-0.2823,-0.2823,-0.2794,-0.2827,-0.284,-0.2823,-0.2942,-0.2907,-0.2922,-0.2967,-0.3085,-0.3092,-0.3098,-0.3142,-0.3155,-0.3166,0,0,0,0,0,0,-0.2658,-0.2686,-0.2674,-0.2752,-0.2781,-0.2808,-0.285,-0.2837,-0.2875,-0.2869,-0.2868,-0.2876,-0.2948,-0.2964,-0.2924,-0.305,-0.301,-0.3019,-0.3038,-0.3051,-0.3061,-0.3057,-0.2887,0,0,0,0,0,-0.2676,-0.272,-0.2742,-0.2809,-0.2824,-0.2834,-0.286,-0.2857,-0.2887,-0.2899,-0.2918,-0.2948,-0.2992,-0.3022,-0.3064,-0.3147,-0.3155,-0.3185,-0.3195,-0.3203,-0.3213,-0.3259,-0.3273,-0.3123,-0.3122,-0.3122,0,0,-0.2715,-0.2735,-0.2764,-0.2819,-0.284,-0.2887,-0.2845,-0.2896,-0.2931,-0.2907,-0.2974,-0.2988,-0.3022,-0.3099,-0.3134,-0.3115,-0.3255,-0.3211,-0.3218,-0.3223,-0.3267,-0.3281,-0.3294,-0.3127,-0.3126,-0.3125,0,0,-0.2811,-0.283,-0.2888,-0.291,-0.2943,-0.2948,-0.2962,-0.2991,-0.3,-0.3066,-0.3049,-0.3091,-0.3167,-0.3192,-0.3214,-0.3316,-0.3303,-0.333,-0.3384,-0.3429,-0.3441,-0.3451,-0.349,-0.3503,-0.3338,-0.3338,-0.3339,0,-0.2856,-0.2925,-0.292,-0.2973,-0.2998,-0.2975,-0.3035,-0.3057,-0.3102,-0.312,-0.3097,-0.3191,-0.3212,-0.3295,-0.332,-0.3338,-0.3355,-0.3328,-0.3439,-0.345,-0.3459,-0.3496,-0.351,-0.3342,-0.3341,-0.3341,-0.3341,0,-0.2979,-0.3027,-0.307,-0.3113,-0.3143,-0.3199,-0.3203,-0.3233,-0.3227,-0.3235,-0.3303,-0.3327,-0.3374,-0.3392,-0.3387,-0.3474,-0.3461,-0.3438,-0.3398,-0.3477,-0.3512,-0.3525,-0.3346,-0.3345,-0.3344,-0.3343,0,0,-0.3108,-0.3145,-0.3161,-0.318,-0.3213,-0.3251,-0.3305,-0.3349,-0.3376,-0.3407,-0.3454,-0.3517,-0.3496,-0.3522,-0.3518,-0.3557,-0.3639,-0.353,-0.3531,-0.3551,-0.3738,-0.3757,-0.3773,-0.3628,-0.3631,-0.3633,-0.3736,0,-0.3207,-0.3303,-0.3299,-0.3388,-0.3433,-0.3411,-0.3459,-0.3485,-0.3493,-0.3533,-0.3542,-0.3588,-0.3555,-0.3571,-0.3608,-0.3621,-0.3677,-0.3613,-0.3674,-0.3676,-0.3669,-0.3791,-0.3812,-0.3908,-0.3749,-0.3751,-0.3753,0,-0.3338,-0.3372,-0.3465,-0.3491,-0.351,-0.3553,-0.3593,-0.363,-0.3658,-0.3662,-0.3689,-0.3679,-0.3735,-0.3691,-0.3768,-0.3725,-0.3749,-0.3758,-0.3762,-0.3771,-0.3722,-0.3805,-0.3939,-0.3954,-0.3774,-0.3772,-0.377,0,-0.3425,-0.3494,-0.3559,-0.3575,-0.3606,-0.3637,-0.3652,-0.3677,-0.3704,-0.3738,-0.3756,-0.3796,-0.3819,-0.3851,-0.3853,-0.382,-0.3932,-0.3887,-0.3938,-0.3938,-0.3966,-0.3965,-0.4108,-0.3976,-0.3975,-0.3975,-0.3975,0,-0.3539,-0.3597,-0.3598,-0.3639,-0.3704,-0.3698,-0.3763,-0.3774,-0.3797,-0.3839,-0.3822,-0.3863,-0.3861,-0.3902,-0.3903,-0.3968,-0.3978,-0.3983,-0.3983,-0.3987,-0.3986,-0.4005,-0.4,-0.3979,-0.3978,-0.3977,-0.3977,0,-0.3649,-0.3651,-0.3721,-0.3744,-0.3751,-0.3798,-0.3818,-0.3856,-0.3862,-0.3916,-0.3928,-0.3938,-0.3985,-0.3989,-0.4044,-0.4044,-0.4124,-0.4115,-0.4115,-0.4114,-0.4166,-0.4162,-0.4328,-0.4351,-0.4202,-0.4203,-0.4204,0,-0.3723,-0.3767,-0.3794,-0.3821,-0.3837,-0.388,-0.3907,-0.3902,-0.393,-0.3965,-0.4,-0.4045,-0.4081,-0.4158,-0.4171,-0.4212,-0.4207,-0.4262,-0.4213,-0.4215,-0.421,-0.4209,-0.4214,-0.4273,-0.4274,-0.4276,-0.4277,0,-0.3855,-0.3854,-0.3892,-0.3931,-0.3962,-0.3993,-0.4021,-0.4044,-0.4043,-0.4075,-0.4123,-0.4151,-0.4206,-0.4252,-0.4292,-0.4308,-0.4293,-0.4291,-0.4306,-0.4311,-0.431,-0.4314,-0.4144,-0.4288,-0.4287,-0.4286,-0.4286,-0.4285,-0.3951,-0.399,-0.4015,-0.4058,-0.4078,-0.4105,-0.4142,-0.4151,-0.4191,-0.4235,-0.4229,-0.4282,-0.4309,-0.4361,-0.4379,-0.4421,-0.4403,-0.4423,-0.4429,-0.4435,-0.4442,-0.43,-0.4428,-0.4428,-0.4428,-0.4427,-0.4427,0,-0.4085,-0.4099,-0.4138,-0.4178,-0.4212,-0.4192,-0.4221,-0.4252,-0.4299,-0.4323,-0.4359,-0.4414,-0.4457,-0.4472,-0.4514,-0.4545,-0.4539,-0.4557,-0.4556,-0.456,-0.4455,-0.4439,-0.4561,-0.4561,-0.4561,-0.4561,-0.456,-0.456,-0.4159,-0.4224,-0.4225,-0.4299,-0.4312,-0.4364,-0.4383,-0.4407,-0.4427,-0.4489,-0.4525,-0.4533,-0.4554,-0.4597,-0.4636,-0.4639,-0.4657,-0.4678,-0.4679,-0.4581,-0.4568,-0.4555,-0.454,-0.4681,-0.4681,-0.4781,-0.4782,-0.4783]},{"header":{"parameterUnit":"m.s-1","parameterCategory":1,"la1":30.2991,"la2":30.254,"lo1":-89.0895,"lo2":-89.0444,"dy":0.0017,"dx":0.0017,"nx":28,"ny":28,"refTime":"2023-11-01T09:00:00:Z","depth":0,"parameterNumber":3,"parameterNumberName":"V-component_of_WINDS"},"data":[0,0,0,0,0,0,0,0,0,0,0,0,0,0,0,0,0,0,0,0,0,0,0,0,0,0,0,0,0,0,0,0,0,0,0,0,0,0,0,0,0,0,0,0,0,0,0,0,0,0,0,0,0,0,0,0,0,0,-8.7772,-8.7774,0,-8.7954,-8.7956,-8.7958,-8.7842,-8.7836,-8.7831,-8.7826,-8.8005,-8.8014,-8.8024,0,0,0,0,0,0,0,0,0,0,0,0,0,-8.7317,-8.7326,-8.7772,-8.7775,-8.7777,-8.7954,-8.7956,-8.7959,-8.7842,-8.7836,-8.7829,-8.7823,-8.8001,-8.8013,-8.8025,0,0,0,0,0,0,0,0,0,0,0,0,0,-8.7508,-8.7329,-8.7772,-8.774,-8.7739,-8.7953,-8.7956,-8.7959,-8.7844,-8.7836,-8.7828,-8.782,-8.7997,-8.8012,-8.8026,-8.8279,0,0,-8.8071,-8.8078,0,0,0,0,0,0,0,0,-8.7497,-8.7525,-8.7743,-8.7743,-8.7742,-8.7867,-8.7861,-8.8066,-8.7846,-8.7804,-8.7825,-8.7816,-8.7965,-8.7982,-8.8033,-8.8288,-8.8295,-8.8073,-8.8081,-8.8088,-8.8092,0,0,0,0,0,0,0,-8.7484,-8.7516,-8.7844,-8.7746,-8.7746,-8.7715,-8.7733,-8.79,-8.7927,-8.7807,-8.7799,-8.7822,-8.7963,-8.802,-8.8037,-8.8298,-8.8072,-8.8085,-8.8094,-8.81,-8.8769,-8.8777,0,0,0,0,0,0,-8.7475,-8.7506,-8.7838,-8.7849,-8.7598,-8.7729,-8.775,-8.7835,-8.7925,-8.7931,-8.7829,-8.7816,-8.7998,-8.802,-8.8043,-8.8345,-8.8088,-8.8101,-8.811,-8.876,-8.877,-8.878,0,0,0,0,0,0,-8.7465,-8.7505,-8.7831,-8.7676,-8.7715,-8.7746,-8.7843,-8.7843,-8.7899,-8.7942,-8.7946,-8.7883,-8.7993,-8.8022,-8.8222,-8.835,-8.8108,-8.8121,-8.8749,-8.8763,-8.8775,-8.8953,0,0,0,0,0,0,-8.7453,-8.7503,-8.7601,-8.7679,-8.7724,-8.801,-8.785,-8.7852,-8.7926,-8.7911,-8.7993,-8.7999,-8.7989,-8.8201,-8.8237,-8.8366,-8.8133,-8.8738,-8.8755,-8.8771,-8.8936,-8.8971,-8.9001,0,0,0,0,0,-8.7437,-8.7642,-8.7607,-8.7647,-8.7848,-8.8018,-8.8043,-8.8029,-8.7937,-8.8035,-8.8062,-8.7996,-8.833,-8.8222,-8.8261,-8.8397,-8.873,-8.875,-8.877,-8.8921,-8.8964,-8.9,0,0,0,0,0,0,-8.7576,-8.7652,-8.7613,-8.785,-8.7929,-8.7998,-8.8121,-8.8075,-8.8179,-8.816,-8.8136,-8.8156,-8.8365,-8.84,-8.8279,-8.8646,-8.8515,-8.8544,-8.8616,-8.8657,-8.8689,-8.8677,-8.8145,0,0,0,0,0,-8.7635,-8.7769,-8.7827,-8.803,-8.8072,-8.809,-8.8163,-8.8146,-8.8225,-8.8257,-8.8299,-8.8377,-8.8498,-8.8579,-8.8694,-8.894,-8.8956,-8.9052,-8.9085,-8.9111,-8.9137,-8.9269,-8.9313,-8.8846,-8.8846,-8.8846,0,0,-8.7757,-8.7815,-8.79,-8.806,-8.8118,-8.8256,-8.8119,-8.827,-8.8371,-8.8279,-8.8472,-8.8505,-8.8589,-8.8814,-8.8915,-8.885,-8.9269,-8.9137,-8.9158,-8.9169,-8.9294,-8.9339,-8.9378,-8.886,-8.8857,-8.8855,0,0,-8.805,-8.8107,-8.8284,-8.8346,-8.8437,-8.8448,-8.849,-8.8567,-8.8586,-8.878,-8.8714,-8.8832,-8.9043,-8.9106,-8.9166,-8.9483,-8.9426,-8.952,-8.969,-8.982,-8.9856,-8.9889,-9.0003,-9.0044,-8.9545,-8.9546,-8.9546,0,-8.8189,-8.8396,-8.8379,-8.8537,-8.8608,-8.8534,-8.8711,-8.8771,-8.8894,-8.8945,-8.887,-8.9134,-8.9185,-8.9424,-8.9501,-8.9552,-8.9598,-8.9511,-8.9853,-8.9885,-8.9915,-9.0023,-9.0066,-8.9557,-8.9555,-8.9554,-8.9553,0,-8.8563,-8.8708,-8.8839,-8.8963,-8.9049,-8.9215,-8.9221,-8.931,-8.9285,-8.9303,-8.95,-8.9559,-8.9685,-8.9739,-8.9715,-8.9975,-8.9932,-8.9856,-8.9723,-8.9971,-9.0072,-9.0113,-8.9572,-8.9568,-8.9565,-8.9562,0,0,-8.895,-8.9063,-8.9112,-8.9167,-8.9263,-8.9373,-8.9534,-8.966,-8.9737,-8.9823,-8.9958,-9.0138,-9.0069,-9.0137,-9.0119,-9.0233,-9.0481,-9.0143,-9.0144,-9.0205,-9.077,-9.0828,-9.0876,-9.0443,-9.0451,-9.0457,-9.0763,0,-8.9249,-8.9536,-8.9525,-8.9791,-8.9924,-8.9855,-8.9995,-9.0068,-9.0089,-9.0202,-9.0223,-9.0353,-9.0251,-9.0292,-9.0401,-9.0428,-9.0594,-9.0405,-9.0567,-9.0573,-9.055,-9.0929,-9.099,-9.1276,-9.0803,-9.0809,-9.0814,0,-8.9637,-8.9741,-9.0021,-9.0097,-9.0152,-9.028,-9.0394,-9.0504,-9.0584,-9.0591,-9.0668,-9.0631,-9.0793,-9.0655,-9.0877,-9.0749,-9.0814,-9.0837,-9.0848,-9.0863,-9.071,-9.0955,-9.1367,-9.1411,-9.0876,-9.0871,-9.0867,0,-8.9893,-9.0101,-9.0296,-9.0346,-9.0439,-9.053,-9.0573,-9.0645,-9.0721,-9.082,-9.0869,-9.0984,-9.1047,-9.1136,-9.1131,-9.1031,-9.1356,-9.1218,-9.1365,-9.1366,-9.1438,-9.1434,-9.1868,-9.1478,-9.1478,-9.1477,-9.1476,0,-9.0229,-9.0403,-9.0413,-9.0533,-9.0725,-9.071,-9.09,-9.0933,-9.0998,-9.1121,-9.1067,-9.1183,-9.1169,-9.1286,-9.1282,-9.1467,-9.1495,-9.1504,-9.1502,-9.1511,-9.151,-9.1554,-9.1534,-9.1488,-9.1486,-9.1484,-9.1482,0,-9.0547,-9.0561,-9.0769,-9.0841,-9.0863,-9.1002,-9.1062,-9.1175,-9.119,-9.1348,-9.1383,-9.1408,-9.1542,-9.1546,-9.1699,-9.1697,-9.1922,-9.1896,-9.1897,-9.1892,-9.204,-9.2027,-9.2519,-9.2582,-9.2151,-9.2155,-9.2158,0,-9.0762,-9.0895,-9.0982,-9.1062,-9.1111,-9.1241,-9.1319,-9.1308,-9.1391,-9.1492,-9.1593,-9.1723,-9.1826,-9.2044,-9.2074,-9.219,-9.2167,-9.2332,-9.2184,-9.2189,-9.2171,-9.2164,-9.2177,-9.2361,-9.2365,-9.2369,-9.2373,0,-9.1142,-9.1142,-9.1258,-9.1378,-9.1473,-9.1565,-9.1651,-9.1719,-9.1717,-9.1813,-9.1952,-9.2032,-9.219,-9.2319,-9.2433,-9.2473,-9.2424,-9.2419,-9.2459,-9.247,-9.2466,-9.2471,-9.1977,-9.2408,-9.2404,-9.2402,-9.24,-9.2398,-9.1415,-9.1531,-9.1611,-9.1742,-9.1805,-9.1887,-9.1997,-9.2028,-9.2144,-9.2274,-9.2259,-9.2413,-9.2488,-9.2635,-9.2686,-9.2804,-9.2747,-9.2806,-9.2821,-9.2836,-9.2853,-9.2446,-9.2824,-9.2823,-9.2822,-9.2822,-9.2821,0,-9.1793,-9.1841,-9.1962,-9.2086,-9.2189,-9.2134,-9.2226,-9.2315,-9.2452,-9.2528,-9.2632,-9.279,-9.2915,-9.2955,-9.3076,-9.3163,-9.3144,-9.3196,-9.319,-9.32,-9.2896,-9.285,-9.321,-9.321,-9.321,-9.321,-9.321,-9.3209,-9.2002,-9.2195,-9.2205,-9.2428,-9.2473,-9.2627,-9.2684,-9.2758,-9.2818,-9.2999,-9.3104,-9.313,-9.3191,-9.3316,-9.3428,-9.3436,-9.3483,-9.3545,-9.3544,-9.326,-9.3221,-9.3184,-9.314,-9.3556,-9.3556,-9.3838,-9.3841,-9.3843]}]]